LFBOLFMT

Guest
Details From LFBO - Toulouse Blagnac
To LFMT - Montpellier/mediterranee
Flight Number -
Tags Generated
Created
Modified
Stats Distance 113 nm / 209 km
Max Altitude 0 ft / 0 m
Waypoints 2
Social Downloads 4
Likes 0
Share VATSIM

Download

Looking for another format? Having issues loading an existing format? Contact us
Advertisement - Login to hide

Notes

Generated

Route

LFBO LFMT

ID Type Via Altitude Latitude Longitude Leg Dist Tot Dist Heading (true) Name
O LFBO APT - 0 ft / 0 m 43.63736˚ 1.35762˚ - 0 nm - -
O LFMT APT - 0 ft / 0 m 43.57586˚ 3.95193˚ 112 nm 112 nm 91° / 93° -

Altitude Profile

Advertisement - Login to hide

LFBO

Details ICAO LFBO (TLS)
Name Toulouse Blagnac
Region France
Timezone Europe/Paris (UTC+1.0)
Stats Elevation 499 ft / 152 m (AMSL)
Location 43.629026° 1.363969°
Runways 2
Magnetic Variation 0.574° E

METAR

LFBO 131830Z AUTO VRB02KT 9999 FEW044 BKN056 OVC072 08/06 Q1016 NOSIG

Decode

TAF

TAF LFBO 131700Z 1318/1424 21005KT 9999 BKN035 BECMG 1319/1321 26010KT TEMPO 1318/1409 -RA BKN020 PROB30 TEMPO 1321/1401 26015G25KT BECMG 1409/1411 BKN022 BKN050 PROB40 TEMPO 1416/1419 CAVOK

Decode

Departure Runways

ID Width Length Bearing (true) Bearing (mag) Surface Threshold Offset Overrun Length
14L 148 ft / 45 m 9,923 ft / 3,025 m 143.00° 142.43° Asphalt 0 ft / 0 m 0 ft / 0 m
14R 148 ft / 45 m 11,484 ft / 3,500 m 142.99° 142.42° Asphalt 0 ft / 0 m 295 ft / 90 m
32L 148 ft / 45 m 11,484 ft / 3,500 m 323.01° 322.44° Asphalt 0 ft / 0 m 197 ft / 60 m
32R 148 ft / 45 m 9,923 ft / 3,025 m 323.02° 322.45° Asphalt 0 ft / 0 m 0 ft / 0 m

LFMT

Details ICAO LFMT (MPL)
Name Montpellier/Mediterranee
Region France
Timezone Europe/Paris (UTC+1.0)
Stats Elevation 16 ft / 5 m (AMSL)
Location 43.576262° 3.963261°
Runways 2
Magnetic Variation 1.247° E

METAR

LFMT 131830Z AUTO 00000KT 9999 FEW040 SCT054 BKN078 08/03 Q1017 TEMPO BKN014

Decode

TAF

TAF LFMT 131400Z 1315/1415 VRB05KT CAVOK TEMPO 1318/1409 BKN014 TEMPO 1322/1403 -RA

Decode

Destination Runways

ID Width Length Bearing (true) Bearing (mag) Surface Threshold Offset Overrun Length
13L 164 ft / 50 m 8,525 ft / 2,598 m 124.78° 123.53° Asphalt 0 ft / 0 m 0 ft / 0 m
13R 98 ft / 30 m 3,611 ft / 1,101 m 124.80° 123.55° Asphalt 328 ft / 100 m 0 ft / 0 m
31L 98 ft / 30 m 3,611 ft / 1,101 m 304.81° 303.56° Asphalt 0 ft / 0 m 0 ft / 0 m
31R 164 ft / 50 m 8,525 ft / 2,598 m 304.80° 303.55° Asphalt 0 ft / 0 m 0 ft / 0 m

Approach Navaids

Runway Type Ident Frequency Range Bearing (true) Bearing (mag) Slope Elevation
31R Localiser FG 108.55 MHz 27 nm / 50 km 304.75° 303.50° - 16 ft / 5 m (AMSL)
31R Glidescope FG 108.55 MHz 27 nm / 50 km 304.75° 303.50° 3.00° 16 ft / 5 m (AMSL)
31R DME FG 108.55 MHz 27 nm / 50 km - - - 16 ft / 5 m (AMSL)

Popular Alternatives